Total_Precipitation_Accumulation
0.62 0.65 0.66 0.62 0.59 0.61 0.73 0.84 1.24 1.66 2.19 2.63 2.81 2.79 2.85 2.73 2.52 2.16 2.07 2.18 2.16 2.09 2.08 1.98 1.95 2.13 2.26 2.27 2.22 2.45 2.51 2.37 2.18 1.98 1.95 1.97 1.92 1.85 1.79 1.73 1.64 1.72 1.78 1.71
0.65 0.55 0.64 0.68 0.70 0.80 0.90 0.97 1.20 1.72 2.44 2.76 2.86 2.82 2.84 2.75 2.59 2.51 2.41 2.34 2.32 2.30 2.28 2.21 2.10 2.17 2.33 2.31 2.24 2.39 2.42 2.49 2.51 2.40 2.35 2.21 2.01 1.92 1.90 1.87 1.82 1.74 1.72 1.65
1.04 0.68 0.91 1.37 1.04 1.00 1.18 1.26 1.51 2.13 2.48 2.42 2.54 2.71 2.92 2.99 2.88 2.78 2.76 2.62 2.59 2.62 2.56 2.56 2.53 2.46 2.47 2.38 2.31 2.36 2.49 2.56 2.54 2.50 2.40 2.29 2.04 1.93 1.97 1.95 1.90 1.81 1.67 1.63
1.24 1.33 2.05 1.86 1.13 1.10 1.34 1.56 1.74 2.01 2.12 2.16 2.20 2.32 2.47 2.61 2.75 2.74 2.68 2.61 2.65 2.77 2.75 2.73 2.63 2.58 2.49 2.41 2.47 2.58 2.65 2.63 2.53 2.37 2.31 2.22 2.14 2.09 2.04 1.95 1.87 1.81 1.72 1.61
1.46 1.83 2.06 1.88 1.23 1.26 1.73 2.31 1.95 1.94 1.83 1.66 1.64 1.94 2.44 2.49 2.51 2.67 2.70 2.67 2.65 2.64 2.63 2.68 2.61 2.52 2.47 2.43 2.47 2.51 2.51 2.38 2.30 2.30 2.31 2.14 2.12 2.08 2.03 1.94 1.83 1.71 1.62 1.56
1.60 2.19 2.58 2.34 1.27 1.06 1.64 2.91 2.21 1.92 1.86 1.73 1.84 2.38 2.63 2.44 2.40 2.36 2.37 2.43 2.35 2.21 2.16 2.35 2.50 2.49 2.38 2.31 2.30 2.27 2.09 1.92 1.82 1.92 2.01 1.88 1.78 1.75 1.76 1.77 1.76 1.66 1.51 1.47
1.78 2.35 2.57 1.57 0.96 1.17 2.49 3.08 2.34 1.94 1.83 1.81 2.10 2.33 2.11 1.91 2.02 2.06 2.03 1.94 1.89 1.86 1.94 2.08 2.14 2.18 2.21 2.12 2.14 2.03 1.85 1.75 1.74 1.71 1.72 1.68 1.70 1.70 1.64 1.59 1.64 1.66 1.61 1.49
1.91 2.51 2.66 1.34 1.14 1.85 2.28 1.88 1.80 1.75 1.69 1.65 1.63 1.54 1.54 1.59 1.62 1.63 1.65 1.62 1.57 1.69 1.80 1.85 1.79 1.80 1.91 1.91 1.92 1.81 1.71 1.64 1.69 1.67 1.56 1.63 1.81 1.75 1.68 1.69 1.67 1.64 1.64 1.54
2.01 2.42 2.08 1.40 1.37 1.52 1.55 1.53 1.43 1.43 1.39 1.33 1.32 1.16 1.22 1.41 1.33 1.27 1.29 1.36 1.43 1.48 1.62 1.73 1.73 1.75 1.80 1.77 1.69 1.67 1.71 1.65 1.58 1.51 1.60 1.67 1.79 1.75 1.67 1.63 1.52 1.40 1.37 1.32
1.69 1.79 1.58 1.41 1.36 1.29 1.17 1.15 1.09 1.17 1.31 1.27 1.25 1.25 1.30 1.35 1.28 1.19 1.22 1.24 1.32 1.38 1.44 1.58 1.56 1.57 1.70 1.64 1.58 1.69 1.78 1.70 1.56 1.46 1.45 1.52 1.59 1.61 1.52 1.45 1.37 1.27 1.20 1.15
1.69 1.67 1.58 1.56 1.35 1.22 1.12 1.01 0.97 1.04 1.14 1.22 1.27 1.32 1.33 1.30 1.25 1.26 1.34 1.37 1.37 1.40 1.40 1.39 1.39 1.41 1.42 1.45 1.55 1.72 1.68 1.53 1.40 1.28 1.24 1.29 1.29 1.28 1.28 1.18 1.14 1.12 1.02 0.94
1.78 1.55 1.59 1.69 1.40 1.17 1.14 1.07 1.04 1.05 1.14 1.27 1.31 1.41 1.35 1.26 1.22 1.25 1.31 1.31 1.37 1.33 1.24 1.24 1.31 1.35 1.28 1.22 1.35 1.60 1.57 1.33 1.18 1.10 1.06 0.98 0.96 0.98 0.98 0.97 0.94 0.89 0.90 0.86
1.28 1.20 1.17 1.11 1.00 0.95 0.94 0.92 0.95 0.99 1.10 1.22 1.24 1.25 1.19 1.22 1.20 1.25 1.30 1.27 1.26 1.24 1.18 1.11 1.15 1.20 1.19 1.13 1.16 1.28 1.37 1.17 0.99 0.93 0.94 0.91 0.91 1.01 1.03 0.90 0.85 0.81 0.83 0.81
0.96 0.99 1.07 1.05 1.04 0.94 0.91 0.91 0.96 0.96 1.00 1.05 1.12 1.14 1.10 1.12 1.17 1.19 1.20 1.15 1.01 0.96 1.04 1.05 1.05 1.00 0.92 0.89 1.02 1.08 1.05 0.99 0.92 0.91 0.87 0.81 0.79 0.89 0.99 1.06 1.03 0.90 0.83 0.84
0.88 0.91 1.05 1.03 0.99 0.91 0.95 1.01 1.10 1.13 1.09 1.07 0.99 0.99 0.99 1.00 1.05 1.07 1.02 0.96 0.96 0.98 0.98 0.97 0.99 0.98 0.81 0.75 0.83 0.87 0.86 0.85 0.87 0.87 0.80 0.75 0.70 0.72 0.76 0.85 0.97 0.99 0.93 0.91
0.88 0.89 0.96 0.96 1.00 0.98 1.00 1.11 1.24 1.23 1.09 1.09 1.08 1.11 1.05 1.03 0.98 0.98 0.98 0.96 0.99 1.01 0.99 1.00 0.99 0.88 0.77 0.75 0.81 0.83 0.76 0.76 0.79 0.79 0.79 0.81 0.77 0.75 0.78 0.82 0.89 0.93 0.95 0.94
1.00 1.08 1.05 0.99 0.95 0.99 1.00 0.97 1.04 1.14 1.07 1.02 1.02 1.06 1.04 1.05 1.04 1.07 1.15 1.09 1.03 0.99 0.96 0.97 0.93 0.80 0.73 0.71 0.76 0.75 0.70 0.70 0.73 0.69 0.71 0.76 0.79 0.85 0.88 0.89 0.93 1.00 1.02 1.04
1.03 1.03 0.97 0.93 0.92 0.92 0.92 0.86 0.80 0.88 0.98 0.98 0.98 0.96 0.97 1.03 1.09 1.12 1.16 1.03 0.97 0.97 0.90 0.83 0.80 0.75 0.69 0.68 0.76 0.77 0.82 0.80 0.73 0.70 0.69 0.69 0.71 0.81 0.96 1.07 1.11 1.12 1.11 1.07
0.89 0.85 0.82 0.81 0.87 0.90 0.84 0.81 0.75 0.73 0.79 0.86 0.87 0.90 0.96 1.02 1.05 1.08 1.06 0.94 0.94 0.97 0.88 0.78 0.77 0.71 0.71 0.71 0.74 0.78 0.84 0.83 0.82 0.82 0.77 0.77 0.75 0.79 0.92 1.02 1.08 1.18 1.18 1.09
0.77 0.74 0.77 0.79 0.81 0.82 0.81 0.75 0.68 0.68 0.71 0.82 0.83 0.87 0.89 0.92 0.96 0.95 0.95 0.93 0.91 0.89 0.82 0.74 0.67 0.67 0.73 0.77 0.79 0.82 0.88 0.85 0.90 0.94 0.88 0.85 0.81 0.81 0.86 0.90 0.90 1.00 1.09 1.08
0.76 0.72 0.73 0.72 0.77 0.78 0.74 0.68 0.66 0.67 0.70 0.79 0.85 0.87 0.84 0.83 0.85 0.87 0.92 0.93 0.84 0.76 0.70 0.68 0.63 0.63 0.68 0.73 0.80 0.81 0.86 0.90 0.94 0.93 0.93 0.90 0.85 0.81 0.82 0.82 0.84 0.90 0.98 0.98
0.79 0.78 0.75 0.70 0.71 0.77 0.73 0.64 0.64 0.70 0.73 0.77 0.77 0.77 0.81 0.83 0.83 0.87 0.89 0.94 0.89 0.80 0.66 0.61 0.59 0.64 0.67 0.64 0.60 0.61 0.65 0.75 0.86 0.90 0.94 0.92 0.87 0.85 0.85 0.84 0.83 0.84 0.84 0.86
0.76 0.76 0.79 0.80 0.84 0.86 0.76 0.63 0.64 0.69 0.70 0.72 0.74 0.83 0.92 0.91 0.83 0.85 0.90 0.83 0.82 0.80 0.67 0.62 0.64 0.66 0.62 0.52 0.50 0.52 0.54 0.58 0.64 0.71 0.79 0.83 0.82 0.77 0.75 0.77 0.78 0.78 0.75 0.78
0.80 0.75 0.74 0.81 0.88 0.83 0.80 0.74 0.68 0.66 0.66 0.66 0.73 0.84 0.90 0.85 0.75 0.72 0.78 0.79 0.77 0.73 0.69 0.70 0.66 0.60 0.56 0.50 0.52 0.54 0.54 0.58 0.61 0.66 0.67 0.67 0.70 0.71 0.70 0.71 0.74 0.74 0.73 0.74
0.77 0.76 0.75 0.82 0.89 0.83 0.77 0.71 0.65 0.65 0.69 0.72 0.72 0.76 0.73 0.69 0.68 0.62 0.57 0.57 0.60 0.59 0.60 0.62 0.61 0.60 0.53 0.49 0.53 0.58 0.58 0.59 0.62 0.64 0.66 0.65 0.64 0.66 0.69 0.72 0.78 0.79 0.79 0.80
0.87 0.94 0.94 0.93 0.90 0.82 0.73 0.67 0.69 0.72 0.77 0.80 0.78 0.74 0.65 0.61 0.62 0.60 0.51 0.46 0.49 0.51 0.49 0.50 0.54 0.57 0.52 0.53 0.57 0.59 0.62 0.64 0.64 0.62 0.62 0.64 0.66 0.68 0.70 0.78 0.81 0.83 0.81 0.76
0.96 0.96 0.96 0.93 0.85 0.77 0.74 0.70 0.71 0.76 0.80 0.83 0.82 0.74 0.66 0.61 0.59 0.58 0.51 0.47 0.47 0.49 0.47 0.48 0.50 0.51 0.51 0.53 0.55 0.55 0.56 0.63 0.68 0.67 0.66 0.67 0.70 0.74 0.77 0.78 0.79 0.81 0.79 0.74